Weather History for Henderson, TX

Change the Weather History Date:

Thursday, January 17, 2013

  Actual Average (KGGG) Record (KGGG)
Temperature  
Mean Temperature 42 °F 46 °F  
Max Temperature 60 °F 57 °F 77 °F (1999)
Min Temperature 24 °F 36 °F 16 °F (1957)
Degree Days  
Heating Degree Days 23 19  
Month to date heating degree days 323  
Since 1 July heating degree days 1229  
Cooling Degree Days 0 0  
Month to date cooling degree days 0  
Year to date cooling degree days 0  
Moisture  
Dew Point 28 °F    
Average Humidity 62    
Maximum Humidity 93    
Minimum Humidity 29    
Precipitation  
Precipitation 0.00 in 0.10 in 2.75 in (1949)
Month to date precipitation 1.74  
Year to date precipitation 1.74  
Snow  
Snow 0.00 in - - ()
Month to date snowfall  
Since 1 July snowfall  
Snow Depth -    
Sea Level Pressure  
Sea Level Pressure 30.35 in    
Wind  
Wind Speed 2 mph (North)    
Max Wind Speed 13 mph    
Max Gust Speed 18 mph    
Visibility 10 miles    
Events      
T = Trace of Precipitation, MM = Missing Value Source: NWS Daily Summary

Daily Weather History Graph

Daily Weather History Graph

Search for Another Location

Airport:

Trip Planner

Search our weather history database for the weather conditions in past years. The results will help you decide how hot, cold, wet, or windy it might be!

Date:

Astronomy

Jan. 17, 2013 Rise Set
Actual Time 7:20 AM CST 5:39 PM CST
Civil Twilight 6:53 AM CST 6:05 PM CST
Nautical Twilight 6:23 AM CST 6:35 PM CST
Astronomical Twilight 5:54 AM CST 7:05 PM CST
Moon 10:53 AM CST (1/17) No Moon Set
Length of Visible Light 11h 12m
Length of Day
10h 19m
Waxing Crescent, 38% of the Moon is Illuminated
Jan 17
Waxing Crescent
Jan 18
First Quarter
Jan 26
Full
Feb 3
Last Quarter
Feb 10
New

Hourly Weather History & Observations

Time (CST) Temp. Windchill Dew Point Humidity Pressure Visibility Wind Dir Wind Speed Gust Speed Precip Events Conditions
12:15 AM 28.4 °F - 24.8 °F 86% 30.25 in 10.0 mi Calm Calm - N/A   Clear
12:35 AM 28.4 °F - 24.8 °F 86% 30.25 in 10.0 mi Calm Calm - N/A   Clear
12:55 AM 26.6 °F - 23.0 °F 86% 30.25 in 10.0 mi Calm Calm - N/A   Clear
1:15 AM 28.4 °F - 24.8 °F 86% 30.26 in 10.0 mi Calm Calm - N/A   Clear
1:35 AM 26.6 °F - 23.0 °F 86% 30.26 in 10.0 mi Calm Calm - N/A   Clear
1:55 AM 26.6 °F - 24.8 °F 93% 30.26 in 10.0 mi Calm Calm - N/A   Clear
2:15 AM 26.6 °F - 23.0 °F 86% 30.27 in 10.0 mi Calm Calm - N/A   Clear
2:35 AM 26.6 °F - 24.8 °F 93% 30.26 in 10.0 mi Calm Calm - N/A   Clear
3:15 AM 26.6 °F - 24.8 °F 93% 30.27 in 10.0 mi Calm Calm - N/A   Clear
3:35 AM 26.6 °F - 23.0 °F 86% 30.27 in 10.0 mi Calm Calm - N/A   Clear
3:55 AM 26.6 °F - 23.0 °F 86% 30.28 in 10.0 mi Calm Calm - N/A   Clear
4:15 AM 24.8 °F - 23.0 °F 93% 30.28 in 10.0 mi Calm Calm - N/A   Clear
4:35 AM 26.6 °F - 23.0 °F 86% 30.28 in 10.0 mi Calm Calm - N/A   Clear
4:55 AM 26.6 °F - 23.0 °F 86% 30.29 in 10.0 mi Calm Calm - N/A   Clear
5:15 AM 26.6 °F - 23.0 °F 86% 30.29 in 10.0 mi Calm Calm - N/A   Clear
5:35 AM 26.6 °F - 23.0 °F 86% 30.29 in 10.0 mi Calm Calm - N/A   Clear
5:55 AM 26.6 °F - 23.0 °F 86% 30.29 in 10.0 mi Calm Calm - N/A   Clear
6:15 AM 26.6 °F - 24.8 °F 93% 30.30 in 10.0 mi Calm Calm - N/A   Clear
6:35 AM 26.6 °F - 23.0 °F 86% 30.31 in 10.0 mi Calm Calm - N/A   Clear
6:55 AM 28.4 °F - 24.8 °F 86% 30.31 in 10.0 mi Calm Calm - N/A   Clear
7:15 AM 26.6 °F - 23.0 °F 86% 30.31 in 10.0 mi Calm Calm - N/A   Clear
7:35 AM 28.4 °F - 26.6 °F 93% 30.32 in 10.0 mi Calm Calm - N/A   Clear
7:55 AM 28.4 °F - 26.6 °F 93% 30.33 in 10.0 mi Calm Calm - N/A   Clear
8:15 AM 32.0 °F - 28.4 °F 87% 30.33 in 10.0 mi Calm Calm - N/A   Clear
8:35 AM 33.8 °F - 28.4 °F 81% 30.35 in 10.0 mi North - - N/A   Clear
8:55 AM 37.4 °F - 28.4 °F 70% 30.36 in 10.0 mi Calm Calm - N/A   Clear
9:15 AM 42.8 °F - 28.4 °F 57% 30.36 in 10.0 mi Calm Calm - N/A   Clear
9:35 AM 44.6 °F 42.2 °F 28.4 °F 53% 30.38 in 10.0 mi NW 4.6 mph - N/A   Clear
9:55 AM 48.2 °F - 26.6 °F 43% 30.39 in 10.0 mi North 5.8 mph - N/A   Clear
10:15 AM 50.0 °F - 26.6 °F 40% 30.39 in 10.0 mi NNE 6.9 mph - N/A   Clear
10:35 AM 51.8 °F - 28.4 °F 41% 30.40 in 10.0 mi NNE 10.4 mph - N/A   Clear
10:55 AM 51.8 °F - 28.4 °F 41% 30.39 in 10.0 mi North 9.2 mph - N/A   Clear
11:15 AM 53.6 °F - 28.4 °F 38% 30.39 in 10.0 mi North 9.2 mph - N/A   Clear
11:35 AM 53.6 °F - 30.2 °F 41% 30.38 in 10.0 mi North 9.2 mph - N/A   Clear
11:55 AM 55.4 °F - 30.2 °F 38% 30.38 in 10.0 mi North 6.9 mph - N/A   Clear
12:15 PM 55.4 °F - 30.2 °F 38% 30.36 in 10.0 mi North 8.1 mph - N/A   Clear
12:35 PM 55.4 °F - 30.2 °F 38% 30.36 in 10.0 mi NNE 6.9 mph 10.4 mph N/A   Clear
12:55 PM 55.4 °F - 30.2 °F 38% 30.36 in 10.0 mi NNW 3.5 mph - N/A   Clear
1:15 PM 55.4 °F - 30.2 °F 38% 30.35 in 10.0 mi North 8.1 mph - N/A   Clear
1:35 PM 59.0 °F - 30.2 °F 34% 30.35 in 10.0 mi NNW 4.6 mph - N/A   Clear
1:55 PM 59.0 °F - 30.2 °F 34% 30.34 in 10.0 mi North 8.1 mph - N/A   Clear
2:15 PM 59.0 °F - 30.2 °F 34% 30.34 in 10.0 mi North 12.7 mph - N/A   Clear
2:35 PM 59.0 °F - 30.2 °F 34% 30.34 in 10.0 mi NW 6.9 mph - N/A   Clear
2:55 PM 60.8 °F - 28.4 °F 29% 30.34 in 10.0 mi North 10.4 mph - N/A   Clear
3:15 PM 60.8 °F - 28.4 °F 29% 30.34 in 10.0 mi North 6.9 mph 18.4 mph N/A   Clear
3:35 PM 60.8 °F - 28.4 °F 29% 30.35 in 10.0 mi NNE 10.4 mph - N/A   Clear
3:55 PM 60.8 °F - 28.4 °F 29% 30.36 in 10.0 mi North 9.2 mph - N/A   Clear
4:35 PM 59.0 °F - 28.4 °F 31% 30.37 in 10.0 mi North 5.8 mph - N/A   Clear
4:55 PM 59.0 °F - 28.4 °F 31% 30.38 in 10.0 mi North 4.6 mph - N/A   Clear
5:15 PM 57.2 °F - 28.4 °F 33% 30.38 in 10.0 mi North 4.6 mph - N/A   Clear
5:35 PM 55.4 °F - 30.2 °F 38% 30.39 in 10.0 mi Calm Calm - N/A   Clear
5:55 PM 53.6 °F - 30.2 °F 41% 30.40 in 10.0 mi NNW 3.5 mph - N/A   Clear
6:35 PM 51.8 °F - 30.2 °F 44% 30.41 in 10.0 mi Calm Calm - N/A   Clear
6:55 PM 48.2 °F - 30.2 °F 50% 30.42 in 10.0 mi Calm Calm - N/A   Clear
7:15 PM 46.4 °F 45.2 °F 32.0 °F 57% 30.42 in 10.0 mi North 3.5 mph - N/A   Clear
7:35 PM 46.4 °F - 32.0 °F 57% 30.43 in 10.0 mi Calm Calm - N/A   Clear
7:55 PM 48.2 °F - 30.2 °F 50% 30.43 in 10.0 mi NNW 3.5 mph - N/A   Clear
8:15 PM 50.0 °F - 30.2 °F 47% 30.44 in 10.0 mi Calm Calm - N/A   Clear
8:35 PM 48.2 °F - 30.2 °F 50% 30.44 in 10.0 mi Calm Calm - N/A   Clear
8:55 PM 46.4 °F 45.2 °F 30.2 °F 53% 30.45 in 10.0 mi NNW 3.5 mph - N/A   Clear
9:15 PM 46.4 °F 45.2 °F 30.2 °F 53% 30.45 in 10.0 mi North 3.5 mph - N/A   Clear
9:35 PM 44.6 °F - 30.2 °F 57% 30.46 in 10.0 mi Calm Calm - N/A   Clear
9:55 PM 39.2 °F - 32.0 °F 75% 30.46 in 10.0 mi Calm Calm - N/A   Clear
11:15 PM 37.4 °F - 32.0 °F 81% 30.48 in 10.0 mi Calm Calm - N/A   Clear
11:35 PM 35.6 °F - 32.0 °F 87% 30.48 in 10.0 mi Calm Calm - N/A   Clear
11:55 PM 39.2 °F - 32.0 °F 75% 30.49 in 10.0 mi Calm Calm - N/A   Clear